Location: Kershaw
(34.5481°N, 80.5823°W)
Time: 19:09:49
(UTC+00:00)

Vanguard 1 Rocket - Pass Details

Date: 04 October 2022
Orbit: 650 x 4225 km, 34.3° (Epoch: 01 December)

Event Time Altitude Azimuth Distance (km) Brightness Sun altitude
Rises 04:04:46 0° 275° (W) 7,061 12.2 -56.1°
Reaches altitude 10° 04:10:17 10° 276° (W) 5,480 11.5 -56.6°
Enters shadow 04:16:18 26° 275° (W) 3,640 10.4 -57.2°
Maximum altitude 04:24:29 84° 191° (S) 1,570 - -57.9°
Drops below altitude 10° 04:31:30 10° 103° (ESE) 2,872 - -58.4°
Sets 04:33:32 0° 103° (ESE) 3,592 - -58.6°
